Overview Statistics Trail Chart Weather Telemetry Raw packets
 

This is the latest recevied weather packets stored in our database for station/object KI5RAB. If no packets are shown the sender has not sent any weather packets the latest 10 day(s).

<< 77 78 79 80 81 82 83 >>
Time Temp. Humidity Pressure Rain* Wind** Luminosity Snow
1788136700 34.44° C 48% 1015.7 hPa 0 mm - 20 W/m² -
1788136396 34.44° C 45% 1015.7 hPa 0 mm - 25 W/m² -
1788136089 35° C 45% 1015.6 hPa 0 mm - 31 W/m² -
1788135788 35° C 44% 1015.5 hPa 0 mm - 34 W/m² -
1788135484 35° C 44% 1015.6 hPa 0 mm - 38 W/m² -
1788135179 35° C 44% 1015.8 hPa 0 mm - 41 W/m² -
1788134876 35° C 45% 1015.7 hPa 0 mm - 41 W/m² -
1788134584 35.56° C 44% 1015.5 hPa 0 mm - 47 W/m² -
1788134270 35.56° C 44% 1015.7 hPa 0 mm - 55 W/m² -
1788133970 35.56° C 44% 1015.7 hPa 0 mm - 45 W/m² -
1788133665 35.56° C 41% 1015.7 hPa 0 mm - 82 W/m² -
1788133361 36.11° C 43% 1015.6 hPa 0 mm - 93 W/m² -
1788133056 36.11° C 43% 1015.7 hPa 0 mm - 83 W/m² -
1788132752 36.11° C 42% 1015.9 hPa 0 mm - 86 W/m² -
1788132448 36.11° C 42% 1015.7 hPa 0 mm - 89 W/m² -
1788132143 36.11° C 42% 1015.9 hPa 0 mm - 122 W/m² -
1788131840 36.11° C 42% 1015.7 hPa 0 mm - 127 W/m² -
1788131539 36.11° C 41% 1015.8 hPa 0 mm - 105 W/m² -
1788131234 36.11° C 40% 1015.5 hPa 0 mm - 161 W/m² -
1788130929 36.11° C 40% 1015.9 hPa 0 mm - 177 W/m² -
1788130623 36.67° C 41% 1016 hPa 0 mm - 189 W/m² -
1788130318 36.67° C 41% 1015.9 hPa 0 mm - 219 W/m² -
1788130017 36.67° C 41% 1015.9 hPa 0 mm - 238 W/m² -
1788129713 37.22° C 41% 1016 hPa 0 mm - 254 W/m² -
1788129409 37.22° C 42% 1015.9 hPa 0 mm - 280 W/m² -

* Rain latest hour (hover to see other rain measurements)
** Current wind speed in m/s (hover to see current wind gust speed)